TimeCDT,TemperatureF,Dew PointF,Humidity,Sea Level PressureIn,VisibilityMPH,Wind Direction,Wind SpeedMPH,Gust SpeedMPH,PrecipitationIn,Events,Conditions,WindDirDegrees,DateUTC
12:15 AM,67.8,62.4,83,30.05,10.0,Calm,Calm,-,N/A,,Clear,0,2013-06-16 05:15:00
12:35 AM,66.7,64.6,93,30.05,10.0,Calm,Calm,-,N/A,,Clear,0,2013-06-16 05:35:00
12:55 AM,66.9,65.1,94,30.05,10.0,Calm,Calm,-,N/A,,Clear,0,2013-06-16 05:55:00
1:15 AM,67.1,65.1,93,30.05,10.0,Calm,Calm,-,N/A,,Clear,0,2013-06-16 06:15:00
1:35 AM,67.1,64.4,91,30.05,10.0,Calm,Calm,-,N/A,,Clear,0,2013-06-16 06:35:00
1:55 AM,66.4,66.2,99,30.05,10.0,Calm,Calm,-,N/A,,Clear,0,2013-06-16 06:55:00
2:15 AM,65.7,65.7,100,30.04,10.0,Calm,Calm,-,N/A,,Clear,0,2013-06-16 07:15:00
2:35 AM,65.5,65.5,100,30.04,10.0,Calm,Calm,-,N/A,,Clear,0,2013-06-16 07:35:00
2:55 AM,64.9,64.9,100,30.04,10.0,Calm,Calm,-,N/A,,Clear,0,2013-06-16 07:55:00
3:15 AM,65.1,65.1,100,30.04,10.0,Calm,Calm,-,N/A,,Clear,0,2013-06-16 08:15:00
3:35 AM,65.1,65.1,100,30.04,10.0,Calm,Calm,-,N/A,,Clear,0,2013-06-16 08:35:00
3:55 AM,65.5,65.5,100,30.04,10.0,Calm,Calm,-,N/A,,Clear,0,2013-06-16 08:55:00
4:15 AM,66.2,65.8,99,30.04,10.0,Calm,Calm,-,N/A,,Clear,0,2013-06-16 09:15:00
4:35 AM,66.4,64.4,93,30.03,10.0,Calm,Calm,-,N/A,,Clear,0,2013-06-16 09:35:00
4:55 AM,67.1,63.1,87,30.04,10.0,Calm,Calm,-,N/A,,Clear,0,2013-06-16 09:55:00
5:15 AM,68.2,62.2,81,30.04,10.0,Calm,Calm,-,N/A,,Clear,0,2013-06-16 10:15:00
5:35 AM,68.0,62.1,81,30.05,10.0,Calm,Calm,-,N/A,,Clear,0,2013-06-16 10:35:00
5:55 AM,68.0,62.4,82,30.06,10.0,Calm,Calm,-,N/A,,Clear,0,2013-06-16 10:55:00
6:15 AM,68.2,62.6,82,30.06,10.0,Calm,Calm,-,N/A,,Clear,0,2013-06-16 11:15:00
6:35 AM,68.5,62.8,82,30.06,10.0,Calm,Calm,-,N/A,,Clear,0,2013-06-16 11:35:00
6:55 AM,69.3,62.8,80,30.06,10.0,South,4.6,-,N/A,,Clear,190,2013-06-16 11:55:00
7:15 AM,70.2,63.3,79,30.07,10.0,SSW,3.5,-,N/A,,Clear,210,2013-06-16 12:15:00
7:35 AM,71.2,64.2,78,30.08,10.0,SSW,3.5,-,N/A,,Clear,210,2013-06-16 12:35:00
7:55 AM,72.5,64.9,77,30.08,10.0,SW,4.6,-,N/A,,Clear,220,2013-06-16 12:55:00
8:15 AM,73.9,65.3,74,30.09,10.0,SW,4.6,-,N/A,,Scattered Clouds,220,2013-06-16 13:15:00
8:35 AM,74.5,65.5,73,30.09,10.0,SW,4.6,-,N/A,,Clear,220,2013-06-16 13:35:00
8:55 AM,75.6,66.0,72,30.09,10.0,SW,4.6,-,N/A,,Clear,230,2013-06-16 13:55:00
9:15 AM,76.3,65.8,70,30.09,10.0,SW,5.8,-,N/A,,Clear,230,2013-06-16 14:15:00
9:35 AM,77.5,66.2,68,30.08,10.0,SSW,6.9,-,N/A,,Clear,200,2013-06-16 14:35:00
9:55 AM,78.4,66.6,67,30.08,10.0,SSW,5.8,-,N/A,,Clear,210,2013-06-16 14:55:00
10:15 AM,79.7,66.4,64,30.07,10.0,SW,6.9,-,N/A,,Clear,220,2013-06-16 15:15:00
10:35 AM,80.1,66.4,63,30.06,10.0,WSW,8.1,-,N/A,,Scattered Clouds,240,2013-06-16 15:35:00
10:55 AM,81.9,67.5,62,30.06,10.0,SW,10.4,-,N/A,,Scattered Clouds,220,2013-06-16 15:55:00
11:15 AM,83.1,67.3,59,30.05,10.0,SW,5.8,-,N/A,,Mostly Cloudy,230,2013-06-16 16:15:00
11:35 AM,83.3,67.3,58,30.05,10.0,SSW,9.2,-,N/A,,Scattered Clouds,210,2013-06-16 16:35:00
11:55 AM,83.7,67.6,58,30.04,10.0,SW,8.1,-,N/A,,Scattered Clouds,220,2013-06-16 16:55:00
12:15 PM,83.5,67.8,59,30.04,10.0,SSW,6.9,-,N/A,,Mostly Cloudy,210,2013-06-16 17:15:00
12:35 PM,84.4,68.2,58,30.03,10.0,SW,6.9,-,N/A,,Scattered Clouds,220,2013-06-16 17:35:00
12:55 PM,84.0,67.5,57,30.03,10.0,SSW,10.4,-,N/A,,Mostly Cloudy,210,2013-06-16 17:55:00
1:15 PM,84.6,67.6,57,30.03,10.0,SW,11.5,17.3,N/A,,Mostly Cloudy,220,2013-06-16 18:15:00
1:35 PM,83.8,67.5,58,30.02,10.0,South,10.4,-,N/A,,Scattered Clouds,190,2013-06-16 18:35:00
1:55 PM,83.7,67.8,59,30.02,10.0,SW,10.4,-,N/A,,Clear,230,2013-06-16 18:55:00
2:15 PM,82.4,67.6,61,30.01,10.0,SSW,8.1,-,N/A,,Scattered Clouds,210,2013-06-16 19:15:00
2:35 PM,82.6,68.0,61,30.02,10.0,SW,5.8,-,N/A,,Clear,220,2013-06-16 19:35:00
2:55 PM,83.8,68.9,61,30.01,10.0,SW,5.8,-,N/A,,Clear,220,2013-06-16 19:55:00
3:15 PM,83.8,68.2,59,30.01,10.0,SW,6.9,-,N/A,,Clear,220,2013-06-16 20:15:00
3:35 PM,83.8,68.5,60,30.00,10.0,SW,6.9,-,N/A,,Clear,220,2013-06-16 20:35:00
3:55 PM,85.6,68.7,57,29.99,10.0,SSW,6.9,-,N/A,,Scattered Clouds,210,2013-06-16 20:55:00
4:15 PM,86.2,68.7,56,29.98,10.0,SW,8.1,-,N/A,,Scattered Clouds,220,2013-06-16 21:15:00
4:35 PM,85.3,67.6,55,29.98,10.0,SW,6.9,-,N/A,,Scattered Clouds,220,2013-06-16 21:35:00
4:55 PM,83.8,67.3,57,29.98,10.0,WSW,8.1,-,N/A,,Mostly Cloudy,240,2013-06-16 21:55:00
5:15 PM,85.1,67.1,55,29.98,10.0,SW,9.2,-,N/A,,Scattered Clouds,230,2013-06-16 22:15:00
5:35 PM,84.9,67.5,56,29.98,10.0,WSW,9.2,-,N/A,,Scattered Clouds,250,2013-06-16 22:35:00
5:55 PM,83.3,66.9,58,29.98,10.0,West,5.8,-,N/A,,Scattered Clouds,260,2013-06-16 22:55:00
6:15 PM,82.6,67.5,60,29.98,10.0,WSW,5.8,-,N/A,,Mostly Cloudy,250,2013-06-16 23:15:00
6:35 PM,82.2,67.1,60,29.99,10.0,Calm,Calm,-,N/A,,Scattered Clouds,0,2013-06-16 23:35:00
6:55 PM,81.1,67.3,63,29.98,10.0,WSW,3.5,-,N/A,Rain,Light Rain,250,2013-06-16 23:55:00
7:15 PM,79.7,67.5,66,29.98,10.0,Calm,Calm,-,N/A,,Scattered Clouds,0,2013-06-17 00:15:00
7:35 PM,79.3,68.0,68,29.99,10.0,Calm,Calm,-,N/A,,Scattered Clouds,0,2013-06-17 00:35:00
7:55 PM,78.1,67.3,69,30.00,10.0,NE,3.5,-,N/A,,Mostly Cloudy,40,2013-06-17 00:55:00
8:15 PM,77.0,67.6,73,30.00,10.0,East,3.5,-,N/A,,Mostly Cloudy,80,2013-06-17 01:15:00
8:35 PM,75.9,68.0,76,29.99,10.0,Calm,Calm,-,N/A,,Scattered Clouds,0,2013-06-17 01:35:00
8:55 PM,75.6,68.0,77,29.99,10.0,Calm,Calm,-,N/A,,Mostly Cloudy,0,2013-06-17 01:55:00
9:15 PM,75.0,68.5,80,29.99,10.0,Calm,Calm,-,N/A,,Scattered Clouds,0,2013-06-17 02:15:00
9:35 PM,74.5,68.5,82,29.99,10.0,Calm,Calm,-,N/A,,Scattered Clouds,0,2013-06-17 02:35:00
9:55 PM,73.9,68.5,83,30.00,10.0,Calm,Calm,-,N/A,,Mostly Cloudy,0,2013-06-17 02:55:00
10:15 PM,73.2,69.1,87,29.99,10.0,Calm,Calm,-,N/A,,Scattered Clouds,0,2013-06-17 03:15:00
10:35 PM,72.9,71.6,96,29.99,10.0,Calm,Calm,-,N/A,,Mostly Cloudy,0,2013-06-17 03:35:00
10:55 PM,72.9,70.9,93,30.00,10.0,Calm,Calm,-,N/A,,Overcast,0,2013-06-17 03:55:00
11:15 PM,72.7,70.5,93,29.99,10.0,Calm,Calm,-,N/A,,Overcast,0,2013-06-17 04:15:00
11:35 PM,72.5,71.1,95,30.00,10.0,Calm,Calm,-,N/A,,Overcast,0,2013-06-17 04:35:00
11:55 PM,71.8,70.9,97,30.00,7.0,Calm,Calm,-,N/A,,Mostly Cloudy,0,2013-06-17 04:55:00